| time (UTC) | temp F | wind direction | speed MPH | gust MPH | rain 1hr in | rain 24hr in | rain mn in | humidity % | barometer mb |
| 20260502232812 | 54 | 335 | 2.0 | 6.0 | 0.00 | 0.00 | 0.00 | 40 | 1010.2 |
| 20260502232328 | 55 | 298 | 2.0 | 5.0 | 0.00 | 0.00 | 0.00 | 41 | 1010.1 |
| 20260502231824 | 55 | 360 | 1.0 | 5.0 | 0.00 | 0.00 | 0.00 | 39 | 1010.1 |
| 20260502231319 | 55 | 325 | 1.0 | 5.0 | 0.00 | 0.00 | 0.00 | 40 | 1010.1 |
| 20260502230816 | 55 | 315 | 3.0 | 9.0 | 0.00 | 0.00 | 0.00 | 41 | 1010.1 |
| 20260502230316 | 55 | 355 | 3.0 | 11.0 | 0.00 | 0.00 | 0.00 | 39 | 1010.1 |
| 20260502225812 | 55 | 309 | 3.0 | 9.0 | 0.00 | 0.00 | 0.00 | 41 | 1010.1 |
| 20260502225328 | 55 | 342 | 4.0 | 12.0 | 0.00 | 0.00 | 0.00 | 39 | 1010.0 |
| 20260502224824 | 55 | 348 | 4.0 | 12.0 | 0.00 | 0.00 | 0.00 | 39 | 1010.0 |
| 20260502224320 | 56 | 355 | 1.0 | 9.0 | 0.00 | 0.00 | 0.00 | 39 | 1010.0 |
| 20260502223817 | 56 | 295 | 2.0 | 9.0 | 0.00 | 0.00 | 0.00 | 40 | 1009.8 |
| 20260502223314 | 56 | 319 | 2.0 | 8.0 | 0.00 | 0.00 | 0.00 | 39 | 1009.8 |
| 20260502222813 | 56 | 315 | 3.0 | 9.0 | 0.00 | 0.00 | 0.00 | 40 | 1009.9 |
| 20260502222330 | 56 | 302 | 4.0 | 6.0 | 0.00 | 0.00 | 0.00 | 39 | 1009.9 |
| 20260502221826 | 56 | 329 | 3.0 | 8.0 | 0.00 | 0.00 | 0.00 | 39 | 1009.9 |
| 20260502221321 | 56 | 9 | 4.0 | 8.0 | 0.00 | 0.00 | 0.00 | 40 | 1009.9 |
| 20260502220818 | 57 | 277 | 2.0 | 11.0 | 0.00 | 0.00 | 0.00 | 39 | 1009.8 |
| 20260502220314 | 57 | 338 | 6.0 | 11.0 | 0.00 | 0.00 | 0.00 | 38 | 1009.8 |
| 20260502215829 | 57 | 338 | 3.0 | 10.0 | 0.00 | 0.00 | 0.00 | 38 | 1009.8 |
| 20260502215310 | 57 | 286 | 3.0 | 10.0 | 0.00 | 0.00 | 0.00 | 38 | 1009.7 |
| 20260502214827 | 57 | 319 | 3.0 | 9.0 | 0.00 | 0.00 | 0.00 | 40 | 1009.7 |
| 20260502214321 | 57 | 331 | 4.0 | 6.0 | 0.00 | 0.00 | 0.00 | 39 | 1009.7 |
| 20260502213818 | 57 | 351 | 3.0 | 8.0 | 0.00 | 0.00 | 0.00 | 41 | 1009.6 |
| 20260502213315 | 57 | 327 | 3.0 | 8.0 | 0.00 | 0.00 | 0.00 | 41 | 1009.6 |
| 20260502212829 | 57 | 360 | 2.0 | 9.0 | 0.00 | 0.00 | 0.00 | 40 | 1009.5 |
| 20260502212326 | 57 | 5 | 5.0 | 10.0 | 0.00 | 0.00 | 0.00 | 40 | 1009.5 |
| 20260502211822 | 58 | 10 | 4.0 | 10.0 | 0.00 | 0.00 | 0.00 | 39 | 1009.4 |
| 20260502211322 | 58 | 11 | 3.0 | 8.0 | 0.00 | 0.00 | 0.00 | 39 | 1009.3 |
| 20260502210819 | 57 | 5 | 2.0 | 10.0 | 0.00 | 0.00 | 0.00 | 39 | 1009.3 |
| 20260502210315 | 57 | 342 | 2.0 | 9.0 | 0.00 | 0.00 | 0.00 | 38 | 1009.3 |
| 20260502205811 | 57 | 329 | 3.0 | 11.0 | 0.00 | 0.00 | 0.00 | 38 | 1009.3 |
| 20260502205328 | 58 | 10 | 2.0 | 6.0 | 0.00 | 0.00 | 0.00 | 38 | 1009.3 |
| 20260502204824 | 57 | 304 | 2.0 | 7.0 | 0.00 | 0.00 | 0.00 | 39 | 1009.2 |
| 20260502204318 | 57 | 317 | 4.0 | 6.0 | 0.00 | 0.00 | 0.00 | 39 | 1009.2 |
| 20260502203818 | 58 | 196 | 1.0 | 9.0 | 0.00 | 0.00 | 0.00 | 37 | 1009.2 |
| 20260502203315 | 58 | 306 | 1.0 | 10.0 | 0.00 | 0.00 | 0.00 | 39 | 1009.3 |
| 20260502202811 | 58 | 279 | 1.0 | 10.0 | 0.00 | 0.00 | 0.00 | 40 | 1009.4 |
| 20260502202327 | 58 | 355 | 5.0 | 9.0 | 0.00 | 0.00 | 0.00 | 39 | 1009.5 |
| 20260502201823 | 58 | 331 | 3.0 | 6.0 | 0.00 | 0.00 | 0.00 | 39 | 1009.6 |
| 20260502201319 | 57 | 17 | 0.0 | 11.0 | 0.00 | 0.00 | 0.00 | 41 | 1009.8 |
| 20260502200815 | 57 | 346 | 6.0 | 12.0 | 0.00 | 0.00 | 0.00 | 41 | 1009.7 |
| 20260502200315 | 57 | 205 | 5.0 | 12.0 | 0.00 | 0.00 | 0.00 | 40 | 1009.8 |
| 20260502195811 | 57 | 343 | 4.0 | 9.0 | 0.00 | 0.00 | 0.00 | 43 | 1009.8 |
| 20260502195328 | 57 | 335 | 2.0 | 5.0 | 0.00 | 0.00 | 0.00 | 42 | 1009.9 |
| 20260502194824 | 57 | 344 | 2.0 | 4.0 | 0.00 | 0.00 | 0.00 | 41 | 1009.9 |
| 20260502194320 | 58 | 248 | 2.0 | 8.0 | 0.00 | 0.00 | 0.00 | 39 | 1009.9 |
| 20260502193817 | 58 | 289 | 3.0 | 8.0 | 0.00 | 0.00 | 0.00 | 38 | 1010.0 |
| 20260502193313 | 58 | 344 | 1.0 | 5.0 | 0.00 | 0.00 | 0.00 | 41 | 1010.0 |
| 20260502192813 | 58 | 319 | 1.0 | 6.0 | 0.00 | 0.00 | 0.00 | 39 | 1010.1 |
| 20260502192330 | 57 | 328 | 2.0 | 10.0 | 0.00 | 0.00 | 0.00 | 40 | 1010.2 |
| 20260502191826 | 57 | 278 | 3.0 | 12.0 | 0.00 | 0.00 | 0.00 | 39 | 1010.5 |
| 20260502191322 | 57 | 9 | 7.0 | 12.0 | 0.00 | 0.00 | 0.00 | 39 | 1010.5 |
| 20260502190818 | 57 | 346 | 3.0 | 6.0 | 0.00 | 0.00 | 0.00 | 39 | 1010.5 |
| 20260502190315 | 57 | 312 | 1.0 | 8.0 | 0.00 | 0.00 | 0.00 | 41 | 1010.6 |
| 20260502185830 | 57 | 307 | 3.0 | 9.0 | 0.00 | 0.00 | 0.00 | 40 | 1010.6 |
| 20260502185330 | 58 | 317 | 2.0 | 12.0 | 0.00 | 0.00 | 0.00 | 39 | 1010.6 |
| 20260502184826 | 58 | 5 | 2.0 | 7.0 | 0.00 | 0.00 | 0.00 | 41 | 1010.5 |
| 20260502184322 | 57 | 273 | 2.0 | 6.0 | 0.00 | 0.00 | 0.00 | 37 | 1010.6 |
| 20260502183818 | 57 | 306 | 2.0 | 12.0 | 0.00 | 0.00 | 0.00 | 38 | 1010.6 |
| 20260502183315 | 57 | 338 | 6.0 | 12.0 | 0.00 | 0.00 | 0.00 | 38 | 1010.6 |
| 20260502182810 | 57 | 325 | 1.0 | 5.0 | 0.00 | 0.00 | 0.00 | 41 | 1010.7 |
| 20260502182326 | 57 | 336 | 2.0 | 8.0 | 0.00 | 0.00 | 0.00 | 41 | 1010.8 |
| 20260502181827 | 57 | 311 | 3.0 | 12.0 | 0.00 | 0.00 | 0.00 | 37 | 1010.8 |
| 20260502181321 | 57 | 274 | 5.0 | 12.0 | 0.00 | 0.00 | 0.00 | 38 | 1010.7 |
| 20260502180818 | 58 | 13 | 2.0 | 7.0 | 0.00 | 0.00 | 0.00 | 40 | 1010.7 |
| 20260502180315 | 57 | 342 | 1.0 | 10.0 | 0.00 | 0.00 | 0.00 | 42 | 1010.8 |
| 20260502170316 | 54 | 323 | 2.0 | 14.0 | 0.00 | 0.00 | 0.00 | 48 | 1011.1 |
| 20260502164316 | 55 | 336 | 3.0 | 6.0 | 0.00 | 0.00 | 0.00 | 51 | 1011.3 |
| 20260502163812 | 55 | 42 | 2.0 | 8.0 | 0.00 | 0.00 | 0.00 | 51 | 1011.5 |
| 20260502163313 | 55 | 256 | 3.0 | 9.0 | 0.00 | 0.00 | 0.00 | 51 | 1011.6 |
| 20260502162828 | 54 | 5 | 4.0 | 10.0 | 0.00 | 0.00 | 0.00 | 53 | 1011.6 |
| 20260502162324 | 53 | 346 | 5.0 | 10.0 | 0.00 | 0.00 | 0.00 | 52 | 1011.6 |
| 20260502161820 | 54 | 11 | 3.0 | 12.0 | 0.00 | 0.00 | 0.00 | 53 | 1011.7 |
| 20260502161315 | 54 | 40 | 6.0 | 12.0 | 0.00 | 0.00 | 0.00 | 53 | 1011.6 |
| 20260502160811 | 54 | 56 | 2.0 | 10.0 | 0.00 | 0.00 | 0.00 | 51 | 1011.7 |
| 20260502160328 | 54 | 5 | 4.0 | 10.0 | 0.00 | 0.00 | 0.00 | 52 | 1011.6 |
| 20260502152321 | 52 | 14 | 4.0 | 9.0 | 0.00 | 0.00 | 0.00 | 59 | 1012.0 |
| 20260502151821 | 52 | 57 | 4.0 | 13.0 | 0.00 | 0.00 | 0.00 | 62 | 1011.8 |
| 20260502151316 | 52 | 335 | 5.0 | 13.0 | 0.00 | 0.00 | 0.00 | 61 | 1012.0 |
| 20260502150813 | 52 | 355 | 6.0 | 13.0 | 0.00 | 0.00 | 0.00 | 62 | 1012.1 |
| 20260502150329 | 51 | 342 | 4.0 | 8.0 | 0.00 | 0.00 | 0.00 | 62 | 1012.1 |
| 20260502130328 | 49 | 329 | 3.0 | 8.0 | 0.00 | 0.00 | 0.00 | 78 | 1012.2 |
| 20260502123812 | 49 | 360 | 2.0 | 14.0 | 0.00 | 0.00 | 0.00 | 79 | 1012.0 |
| 20260502123329 | 49 | 348 | 7.0 | 14.0 | 0.00 | 0.00 | 0.00 | 79 | 1011.9 |
| 20260502122825 | 49 | 19 | 4.0 | 12.0 | 0.00 | 0.00 | 0.00 | 80 | 1011.7 |
| 20260502122326 | 49 | 320 | 2.0 | 10.0 | 0.00 | 0.00 | 0.00 | 81 | 1011.7 |
| 20260502121822 | 49 | 322 | 4.0 | 10.0 | 0.00 | 0.00 | 0.00 | 81 | 1011.7 |
| 20260502121317 | 49 | 322 | 2.0 | 9.0 | 0.00 | 0.00 | 0.00 | 82 | 1011.7 |
| 20260502120813 | 49 | 15 | 4.0 | 9.0 | 0.00 | 0.00 | 0.00 | 82 | 1011.6 |
| 20260502120329 | 49 | 311 | 3.0 | 10.0 | 0.00 | 0.00 | 0.00 | 82 | 1011.6 |
| 20260502115825 | 49 | 326 | 3.0 | 10.0 | 0.00 | 0.00 | 0.00 | 82 | 1011.2 |
| 20260502115320 | 49 | 292 | 3.0 | 8.0 | 0.00 | 0.00 | 0.00 | 82 | 1011.4 |
| 20260502114820 | 49 | 332 | 3.0 | 8.0 | 0.00 | 0.00 | 0.00 | 83 | 1011.4 |
| 20260502114315 | 49 | 335 | 3.0 | 8.0 | 0.00 | 0.00 | 0.00 | 83 | 1011.5 |
| 20260502113811 | 49 | 234 | 3.0 | 8.0 | 0.00 | 0.00 | 0.00 | 84 | 1011.4 |
| 20260502113328 | 49 | 335 | 2.0 | 4.0 | 0.00 | 0.00 | 0.00 | 85 | 1011.4 |
| 20260502112824 | 49 | 271 | 1.0 | 3.0 | 0.00 | 0.00 | 0.00 | 85 | 1011.6 |
| 20260502112321 | 49 | 268 | 1.0 | 3.0 | 0.00 | 0.00 | 0.00 | 86 | 1011.6 |
| 20260502111817 | 48 | 300 | 1.0 | 3.0 | 0.00 | 0.00 | 0.00 | 87 | 1011.6 |
| 20260502111316 | 48 | 230 | 0.0 | 4.0 | 0.00 | 0.00 | 0.00 | 88 | 1011.6 |
| 20260502110812 | 48 | 340 | 2.0 | 4.0 | 0.00 | 0.00 | 0.00 | 88 | 1011.6 |
| 20260502110329 | 48 | 325 | 0.0 | 2.0 | 0.00 | 0.00 | 0.00 | 89 | 1011.5 |
| 20260502105825 | 48 | 332 | 1.0 | 2.0 | 0.00 | 0.00 | 0.00 | 89 | 1011.3 |
| 20260502105321 | 47 | 340 | 0.0 | 0.0 | 0.00 | 0.00 | 0.00 | 90 | 1011.2 |
| 20260502104817 | 47 | 340 | 0.0 | 0.0 | 0.00 | 0.00 | 0.00 | 91 | 1011.2 |
| 20260502104312 | 47 | 340 | 0.0 | 0.0 | 0.00 | 0.00 | 0.00 | 91 | 1011.1 |
| 20260502103812 | 47 | 340 | 0.0 | 0.0 | 0.00 | 0.00 | 0.00 | 91 | 1011.2 |
| 20260502103329 | 46 | 340 | 0.0 | 0.0 | 0.00 | 0.00 | 0.00 | 90 | 1011.0 |
| 20260502102825 | 46 | 340 | 0.0 | 0.0 | 0.00 | 0.00 | 0.00 | 90 | 1011.0 |
| 20260502102322 | 46 | 340 | 0.0 | 0.0 | 0.00 | 0.00 | 0.00 | 90 | 1011.1 |
| 20260502101838 | 46 | 340 | 0.0 | 0.0 | 0.00 | 0.00 | 0.00 | 90 | 1011.0 |
| 20260502101314 | 46 | 340 | 0.0 | 0.0 | 0.00 | 0.00 | 0.00 | 90 | 1010.9 |
| 20260502100810 | 46 | 340 | 0.0 | 0.0 | 0.00 | 0.00 | 0.00 | 89 | 1010.9 |
| 20260502100327 | 46 | 340 | 0.0 | 0.0 | 0.00 | 0.00 | 0.00 | 89 | 1011.0 |
| 20260502091315 | 48 | 340 | 0.0 | 1.0 | 0.00 | 0.00 | 0.00 | 84 | 1010.4 |
| 20260502090812 | 48 | 331 | 0.0 | 2.0 | 0.00 | 0.00 | 0.00 | 85 | 1010.7 |
| 20260502090329 | 49 | 347 | 0.0 | 4.0 | 0.00 | 0.00 | 0.00 | 84 | 1010.7 |
| 20260502071313 | 51 | 309 | 3.0 | 4.0 | 0.00 | 0.00 | 0.00 | 78 | 1010.8 |
| 20260502070830 | 51 | 317 | 1.0 | 4.0 | 0.00 | 0.00 | 0.00 | 78 | 1010.8 |
| 20260502070326 | 51 | 10 | 1.0 | 3.0 | 0.00 | 0.00 | 0.00 | 79 | 1010.9 |
| 20260502065822 | 51 | 344 | 1.0 | 3.0 | 0.00 | 0.00 | 0.00 | 79 | 1010.9 |
| 20260502065339 | 51 | 329 | 2.0 | 3.0 | 0.00 | 0.00 | 0.00 | 78 | 1011.0 |
| 20260502064835 | 51 | 333 | 2.0 | 3.0 | 0.00 | 0.00 | 0.00 | 77 | 1011.0 |
| 20260502064350 | 52 | 330 | 3.0 | 3.0 | 0.00 | 0.00 | 0.00 | 76 | 1011.0 |
| 20260502063825 | 52 | 319 | 1.0 | 3.0 | 0.00 | 0.00 | 0.00 | 74 | 1011.1 |
| 20260502063326 | 52 | 328 | 1.0 | 3.0 | 0.00 | 0.00 | 0.00 | 74 | 1011.0 |
| 20260502062821 | 52 | 331 | 0.0 | 0.0 | 0.00 | 0.00 | 0.00 | 75 | 1011.1 |
| 20260502062318 | 52 | 331 | 0.0 | 0.0 | 0.00 | 0.00 | 0.00 | 75 | 1011.1 |
| 20260502061815 | 52 | 331 | 0.0 | 0.0 | 0.00 | 0.00 | 0.00 | 74 | 1011.2 |
| 20260502061310 | 52 | 331 | 0.0 | 2.0 | 0.00 | 0.00 | 0.00 | 75 | 1011.1 |
| 20260502060828 | 52 | 331 | 0.0 | 2.0 | 0.00 | 0.00 | 0.00 | 77 | 1011.1 |
| 20260502060324 | 51 | 331 | 0.0 | 0.0 | 0.00 | 0.00 | 0.00 | 76 | 1011.3 |
| 20260502055839 | 52 | 331 | 0.0 | 0.0 | 0.00 | 0.00 | 0.00 | 76 | 1011.2 |
| 20260502055318 | 52 | 331 | 0.0 | 0.0 | 0.00 | 0.00 | 0.00 | 76 | 1011.2 |
| 20260502054835 | 52 | 331 | 0.0 | 0.0 | 0.00 | 0.00 | 0.00 | 76 | 1011.2 |
| 20260502054328 | 52 | 331 | 0.0 | 0.0 | 0.00 | 0.00 | 0.00 | 75 | 1011.1 |
| 20260502053825 | 52 | 331 | 0.0 | 0.0 | 0.00 | 0.00 | 0.00 | 74 | 1011.1 |
| 20260502053322 | 52 | 331 | 0.0 | 0.0 | 0.00 | 0.00 | 0.00 | 74 | 1011.1 |
| 20260502052817 | 52 | 331 | 0.0 | 0.0 | 0.00 | 0.00 | 0.00 | 73 | 1011.0 |
| 20260502052334 | 52 | 331 | 0.0 | 0.0 | 0.00 | 0.00 | 0.00 | 73 | 1011.1 |
| 20260502051830 | 52 | 331 | 0.0 | 0.0 | 0.00 | 0.00 | 0.00 | 72 | 1011.1 |
| 20260502051310 | 52 | 331 | 0.0 | 1.0 | 0.00 | 0.00 | 0.00 | 72 | 1011.2 |
| 20260502050827 | 53 | 331 | 0.0 | 1.0 | 0.00 | 0.00 | 0.00 | 71 | 1011.2 |
| 20260502050344 | 53 | 331 | 0.0 | 0.0 | 0.00 | 0.00 | 0.00 | 70 | 1011.3 |
| 20260502045818 | 53 | 331 | 0.0 | 0.0 | 0.00 | 0.00 | 0.00 | 69 | 1011.2 |
| 20260502045315 | 53 | 331 | 0.0 | 2.0 | 0.00 | 0.00 | 0.00 | 69 | 1011.2 |
| 20260502044812 | 53 | 331 | 0.0 | 2.0 | 0.00 | 0.00 | 0.00 | 69 | 1011.1 |
| 20260502044327 | 53 | 331 | 0.0 | 0.0 | 0.00 | 0.00 | 0.00 | 67 | 1011.3 |
| 20260502043824 | 53 | 331 | 0.0 | 0.0 | 0.00 | 0.00 | 0.00 | 68 | 1011.3 |
| 20260502043324 | 53 | 331 | 0.0 | 0.0 | 0.00 | 0.00 | 0.00 | 68 | 1011.2 |
| 20260502042821 | 53 | 331 | 0.0 | 0.0 | 0.00 | 0.00 | 0.00 | 69 | 1011.2 |
| 20260502042316 | 53 | 331 | 0.0 | 0.0 | 0.00 | 0.00 | 0.00 | 69 | 1011.2 |
| 20260502041813 | 53 | 331 | 0.0 | 0.0 | 0.00 | 0.00 | 0.00 | 69 | 1011.1 |
| 20260502041328 | 53 | 331 | 0.0 | 0.0 | 0.00 | 0.00 | 0.00 | 68 | 1011.2 |
| 20260502040824 | 54 | 331 | 0.0 | 0.0 | 0.00 | 0.00 | 0.00 | 68 | 1011.1 |
| 20260502040321 | 54 | 331 | 0.0 | 0.0 | 0.00 | 0.00 | 0.00 | 67 | 1011.1 |
| 20260502035820 | 54 | 331 | 0.0 | 0.0 | 0.00 | 0.00 | 0.00 | 66 | 1011.1 |
| 20260502035316 | 54 | 331 | 0.0 | 0.0 | 0.00 | 0.00 | 0.00 | 64 | 1011.0 |
| 20260502034813 | 54 | 331 | 0.0 | 0.0 | 0.00 | 0.00 | 0.00 | 64 | 1010.9 |
| 20260502034329 | 54 | 331 | 0.0 | 0.0 | 0.00 | 0.00 | 0.00 | 63 | 1010.9 |
| 20260502033845 | 54 | 331 | 0.0 | 0.0 | 0.00 | 0.00 | 0.00 | 64 | 1010.8 |
| 20260502033321 | 54 | 331 | 0.0 | 0.0 | 0.00 | 0.00 | 0.00 | 64 | 1010.9 |
| 20260502032817 | 55 | 331 | 0.0 | 0.0 | 0.00 | 0.00 | 0.00 | 63 | 1010.9 |
| 20260502032317 | 55 | 331 | 0.0 | 0.0 | 0.00 | 0.00 | 0.00 | 63 | 1010.9 |
| 20260502031813 | 55 | 331 | 0.0 | 0.0 | 0.00 | 0.00 | 0.00 | 61 | 1011.0 |
| 20260502031328 | 55 | 331 | 0.0 | 0.0 | 0.00 | 0.00 | 0.00 | 60 | 1011.0 |
| 20260502030844 | 55 | 331 | 0.0 | 0.0 | 0.00 | 0.00 | 0.00 | 59 | 1011.1 |
| 20260502030320 | 55 | 331 | 0.0 | 0.0 | 0.00 | 0.00 | 0.00 | 59 | 1011.0 |
| 20260502025816 | 55 | 331 | 0.0 | 0.0 | 0.00 | 0.00 | 0.00 | 60 | 1011.1 |
| 20260502025312 | 54 | 331 | 0.0 | 0.0 | 0.00 | 0.00 | 0.00 | 62 | 1011.2 |
| 20260502024829 | 55 | 331 | 0.0 | 1.0 | 0.00 | 0.00 | 0.00 | 63 | 1011.2 |
| 20260502024329 | 55 | 331 | 0.0 | 1.0 | 0.00 | 0.00 | 0.00 | 62 | 1011.2 |
| 20260502023825 | 55 | 331 | 0.0 | 0.0 | 0.00 | 0.00 | 0.00 | 60 | 1011.3 |
| 20260502023322 | 55 | 331 | 0.0 | 0.0 | 0.00 | 0.00 | 0.00 | 60 | 1011.3 |
| 20260502022817 | 55 | 331 | 0.0 | 0.0 | 0.00 | 0.00 | 0.00 | 60 | 1011.4 |
| 20260502022314 | 56 | 331 | 0.0 | 1.0 | 0.00 | 0.00 | 0.00 | 58 | 1011.4 |
| 20260502021810 | 56 | 331 | 0.0 | 1.0 | 0.00 | 0.00 | 0.00 | 56 | 1011.3 |
| 20260502021325 | 56 | 345 | 0.0 | 2.0 | 0.00 | 0.00 | 0.00 | 57 | 1011.0 |
| 20260502020826 | 56 | 345 | 0.0 | 3.0 | 0.00 | 0.00 | 0.00 | 56 | 1011.2 |
| 20260502020322 | 56 | 355 | 1.0 | 3.0 | 0.00 | 0.00 | 0.00 | 57 | 1011.2 |
| 20260502015818 | 56 | 319 | 2.0 | 6.0 | 0.00 | 0.00 | 0.00 | 55 | 1011.2 |
| 20260502015316 | 57 | 314 | 1.0 | 6.0 | 0.00 | 0.00 | 0.00 | 55 | 1011.2 |
| 20260502014810 | 57 | 307 | 3.0 | 4.0 | 0.00 | 0.00 | 0.00 | 56 | 1011.1 |
| 20260502014327 | 57 | 329 | 1.0 | 3.0 | 0.00 | 0.00 | 0.00 | 57 | 1011.1 |
| 20260502013842 | 56 | 340 | 1.0 | 3.0 | 0.00 | 0.00 | 0.00 | 59 | 1011.1 |
| 20260502013318 | 56 | 281 | 0.0 | 0.0 | 0.00 | 0.00 | 0.00 | 60 | 1010.9 |
| 20260502012839 | 56 | 281 | 0.0 | 0.0 | 0.00 | 0.00 | 0.00 | 57 | 1010.9 |
| 20260502012314 | 56 | 281 | 0.0 | 0.0 | 0.00 | 0.00 | 0.00 | 58 | 1010.8 |
| 20260502011810 | 56 | 281 | 0.0 | 0.0 | 0.00 | 0.00 | 0.00 | 59 | 1010.8 |
| 20260502011327 | 56 | 281 | 0.0 | 0.0 | 0.00 | 0.00 | 0.00 | 58 | 1010.7 |
| 20260502010820 | 56 | 281 | 0.0 | 0.0 | 0.00 | 0.00 | 0.00 | 58 | 1010.8 |
| 20260502010316 | 56 | 281 | 0.0 | 0.0 | 0.00 | 0.00 | 0.00 | 57 | 1010.6 |
| 20260502005812 | 56 | 281 | 0.0 | 0.0 | 0.00 | 0.00 | 0.00 | 58 | 1010.6 |
| 20260502005313 | 56 | 281 | 0.0 | 0.0 | 0.00 | 0.00 | 0.00 | 57 | 1010.5 |
| 20260502004849 | 57 | 281 | 0.0 | 0.0 | 0.00 | 0.00 | 0.00 | 56 | 1010.5 |
| 20260502004344 | 57 | 281 | 0.0 | 0.0 | 0.00 | 0.00 | 0.00 | 56 | 1010.5 |
| 20260502003839 | 57 | 281 | 0.0 | 0.0 | 0.00 | 0.00 | 0.00 | 54 | 1010.4 |
| 20260502003314 | 57 | 281 | 0.0 | 0.0 | 0.00 | 0.00 | 0.00 | 54 | 1010.4 |
| 20260502002850 | 57 | 281 | 0.0 | 0.0 | 0.00 | 0.00 | 0.00 | 54 | 1010.3 |
| 20260502002325 | 58 | 281 | 0.0 | 0.0 | 0.00 | 0.00 | 0.00 | 53 | 1010.2 |
| 20260502001822 | 58 | 281 | 0.0 | 0.0 | 0.00 | 0.00 | 0.00 | 53 | 1010.2 |
| 20260502001339 | 58 | 281 | 0.0 | 0.0 | 0.00 | 0.00 | 0.00 | 53 | 1010.2 |
| 20260502000814 | 58 | 281 | 0.0 | 0.0 | 0.00 | 0.00 | 0.00 | 52 | 1010.2 |
| 20260502000317 | 58 | 281 | 0.0 | 0.0 | 0.00 | 0.00 | 0.00 | 52 | 1010.2 |
| 20260501235811 | 59 | 281 | 0.0 | 0.0 | 0.00 | 0.00 | 0.00 | 51 | 1010.1 |
| 20260501235348 | 59 | 281 | 0.0 | 0.0 | 0.00 | 0.00 | 0.00 | 51 | 1010.1 |
| 20260501234823 | 59 | 281 | 0.0 | 1.0 | 0.00 | 0.00 | 0.00 | 49 | 1010.0 |
| 20260501234320 | 60 | 281 | 0.0 | 1.0 | 0.00 | 0.00 | 0.00 | 49 | 1009.9 |
| 20260501233816 | 60 | 281 | 0.0 | 1.0 | 0.00 | 0.00 | 0.00 | 48 | 1009.9 |
| 20260501233313 | 60 | 281 | 0.0 | 1.0 | 0.00 | 0.00 | 0.00 | 48 | 1009.9 |
| 20260501232828 | 60 | 305 | 0.0 | 1.0 | 0.00 | 0.00 | 0.00 | 47 | 1010.0 |